Flag for United Kingdom Weather past 2 weeks in Norwich, England, United Kingdom

Now
64 °F

Passing clouds.


Feels Like: 64 °F
Forecast: 55 / 69 °F
Wind: 6 mph from Northeast

Location: Norwich Weather Centre

Current Time: Oct 2, 2014 at 4:11:47 PM

Latest Report: Oct 2, 2014 at 3:20 PM


Visibility: N/A

Pressure: 30.36 "Hg

Humidity: 83%

Dew point: 59 °F

Location of NorwichLocation

Historic Weather in Norwich — Graph

°F

Norwich temperature yesterday

Maximum temperature yesterday: 68 °F (at 12:20 PM)
Minimum temperature yesterday: 57 °F (at 12:50 AM)
Average temperature yesterday: 62 °F

Past Weeks' High & Low Weather Summary

 TemperatureHumidityPressure
High73 °F (Sep 19, 2:50 PM)100% (Sep 18, 5:50 AM)30.42 "Hg (Sep 18, 5:50 AM)
Low43 °F (Sep 25, 6:20 AM)52% (Sep 23, 1:50 PM)29.83 "Hg (Sep 18, 6:20 AM)
Average60 °F86%30.11 "Hg
* Reported Sep 17 2:20 PM — Oct 2 2:20 PM, Norwich, Weather by CustomWeather, © 2014

Note: Actual official high and low records may vary slightly from our data, if they occured in-between our weather recording intervals... More about our weather records

Advertising

Norwich weather history for previous 24 hours

 ConditionsComfort  
Time TempWeatherWind HumidityBarometerVisibility
2:20 PM
Oct 2
66 °FScattered clouds.6 mph73%30.36 "HgN/A
1:50 PM66 °FScattered clouds.1 mph73%30.36 "HgN/A
1:20 PM64 °FScattered clouds.2 mph78%30.39 "HgN/A
12:50 PM66 °FScattered clouds.6 mph73%30.39 "HgN/A
12:20 PM64 °FScattered clouds.3 mph83%30.39 "HgN/A
11:50 AM64 °FScattered clouds.2 mph83%30.39 "HgN/A
11:20 AM66 °FPassing clouds.3 mph78%30.42 "HgN/A
10:50 AM64 °FScattered clouds.2 mph78%30.42 "HgN/A
10:20 AM63 °FScattered clouds.3 mph88%30.42 "HgN/A
9:50 AM63 °FScattered clouds.5 mph88%30.39 "HgN/A
9:20 AM61 °FPassing clouds.5 mph94%30.39 "Hg6 mi
8:50 AM59 °FClear.2 mph100%30.39 "Hg6 mi
8:20 AM57 °FPassing clouds.1 mph100%30.39 "Hg5 mi
7:50 AM57 °FPassing clouds.2 mph100%30.39 "Hg6 mi
7:20 AM57 °FPassing clouds.2 mph100%30.39 "HgN/A
6:50 AM57 °FPassing clouds.3 mph100%30.39 "HgN/A
6:20 AM59 °FPassing clouds.3 mph94%30.39 "HgN/A
5:50 AM59 °FPartly cloudy.5 mph94%30.39 "HgN/A
5:20 AM59 °FMostly cloudy.5 mph94%30.39 "HgN/A
4:50 AM59 °FLow clouds.7 mph94%30.39 "HgN/A
4:20 AM59 °FPassing clouds.6 mph100%30.39 "Hg6 mi
3:50 AM59 °FPartly cloudy.5 mph94%30.36 "HgN/A
3:20 AM59 °FPassing clouds.3 mph94%30.36 "HgN/A
2:50 AM59 °FPassing clouds.1 mph94%30.36 "HgN/A
2:20 AM59 °FPassing clouds.3 mph88%30.36 "HgN/A
1:50 AM57 °FCool.1 mph94%30.36 "HgN/A
1:20 AM59 °FPassing clouds.No wind94%30.36 "HgN/A
12:50 AM59 °FPassing clouds.No wind94%30.36 "HgN/A
12:20 AM59 °FPassing clouds.3 mph94%30.36 "HgN/A
11:50 PM
Oct 1
59 °FPassing clouds.2 mph88%30.36 "HgN/A
11:20 PM61 °FPassing clouds.1 mph83%30.33 "HgN/A
10:50 PM61 °FPassing clouds.No wind83%30.33 "HgN/A
10:20 PM59 °FPassing clouds.No wind88%30.33 "HgN/A
9:50 PM61 °FClear.1 mph83%30.33 "Hg6 mi
9:20 PM59 °FClear.1 mph88%30.33 "Hg6 mi
8:50 PM59 °FClear.No wind82%30.33 "Hg6 mi
8:20 PM59 °FPassing clouds.No wind88%30.30 "HgN/A
7:50 PM61 °FPassing clouds.2 mph77%30.30 "HgN/A
7:20 PM63 °FPassing clouds.2 mph77%30.30 "HgN/A
6:50 PM63 °FPassing clouds.3 mph73%30.27 "HgN/A
6:20 PM64 °FPassing clouds.3 mph68%30.27 "HgN/A
5:50 PM64 °FPassing clouds.2 mph68%30.27 "HgN/A
5:20 PM64 °FPassing clouds.5 mph68%30.27 "HgN/A
4:50 PM66 °FPassing clouds.6 mph64%30.24 "HgN/A
4:20 PM66 °FPassing clouds.6 mph60%30.24 "HgN/A
Weather by CustomWeather, © 2014

See weather overviewHow to use our weather pages